Flag for Turkey Weather past 2 weeks in Ankara, Turkey

Now
75 °F

Scattered clouds.


Feels Like: 78 °F
Forecast: 58 / 90 °F
Wind: 12 mph from East

Location: Ankara / Esenboga

Current Time: Aug 30, 2014 at 1:23:19 PM

Latest Report: Aug 30, 2014 at 12:50 PM


Visibility: N/A

Pressure: 30.09 "Hg

Humidity: 47%

Dew point: 54 °F

Location of AnkaraLocation

Historic Weather in Ankara — Graph

°F

Ankara temperature yesterday

Maximum temperature yesterday: 82 °F (at 3:20 PM)
Minimum temperature yesterday: 66 °F (at 1:50 AM)
Average temperature yesterday: 73 °F

Past Weeks' High & Low Weather Summary

 TemperatureHumidityPressure
High99 °F (Aug 28, 1:50 PM)88% (Aug 19, 4:20 AM)30.12 "Hg (Aug 19, 4:20 AM)
Low59 °F (Aug 16, 4:50 AM)8% (Aug 16, 1:50 PM)29.65 "Hg (Aug 17, 11:20 PM)
Average76 °F45%29.96 "Hg
* Reported Aug 15 12:50 PM — Aug 30 12:20 PM, Ankara, Weather by CustomWeather, © 2014

Note: Actual official high and low records may vary slightly from our data, if they occured in-between our weather recording intervals... More about our weather records

Advertising

Ankara weather history for previous 24 hours

 ConditionsComfort  
Time TempWeatherWind HumidityBarometerVisibility
12:20 PM
Aug 30
75 °FScattered clouds.13 mph47%30.09 "HgN/A
11:50 AM75 °FScattered clouds.13 mph47%30.09 "HgN/A
11:20 AM73 °FScattered clouds.14 mph50%30.12 "HgN/A
10:50 AM73 °FScattered clouds.14 mph53%30.12 "HgN/A
10:20 AM72 °FScattered clouds.15 mph53%30.12 "HgN/A
9:50 AM72 °FScattered clouds.15 mph57%30.12 "HgN/A
9:20 AM70 °FScattered clouds.16 mph60%30.12 "HgN/A
8:50 AM68 °FPassing clouds.14 mph64%30.12 "HgN/A
8:20 AM66 °FScattered clouds.16 mph68%30.12 "HgN/A
7:50 AM66 °FSunny.14 mph68%30.12 "Hg10 mi
7:20 AM64 °FScattered clouds.16 mph73%30.12 "HgN/A
6:50 AM64 °FClear.14 mph73%30.12 "Hg10 mi
6:20 AM64 °FClear.14 mph73%30.12 "Hg10 mi
5:50 AM63 °FClear.10 mph77%30.09 "Hg10 mi
5:20 AM64 °FPassing clouds.13 mph73%30.09 "HgN/A
4:50 AM63 °FClear.9 mph77%30.09 "Hg10 mi
4:20 AM63 °FClear.10 mph83%30.09 "Hg10 mi
3:50 AM63 °FClear.8 mph77%30.09 "Hg10 mi
3:20 AM64 °FClear.10 mph78%30.09 "Hg10 mi
2:50 AM64 °FClear.10 mph78%30.09 "Hg10 mi
2:20 AM66 °FClear.12 mph73%30.09 "Hg10 mi
1:50 AM64 °FClear.12 mph78%30.09 "Hg10 mi
1:20 AM66 °FClear.12 mph73%30.09 "Hg10 mi
12:50 AM66 °FClear.10 mph73%30.09 "Hg10 mi
12:20 AM66 °FClear.10 mph73%30.09 "Hg10 mi
11:50 PM
Aug 29
68 °FClear.10 mph69%30.09 "Hg10 mi
9:50 PM70 °FPassing clouds.16 mph64%30.07 "HgN/A
9:20 PM70 °FPassing clouds.17 mph64%30.07 "HgN/A
8:50 PM70 °FPassing clouds.14 mph64%30.07 "HgN/A
8:20 PM72 °FScattered clouds.15 mph61%30.04 "HgN/A
7:50 PM73 °FScattered clouds.16 mph57%30.04 "HgN/A
7:20 PM75 °FScattered clouds.16 mph54%30.01 "HgN/A
6:50 PM77 °FScattered clouds.16 mph51%30.01 "HgN/A
6:20 PM79 °FScattered clouds.17 mph45%30.01 "HgN/A
5:50 PM81 °FScattered clouds.15 mph45%29.98 "HgN/A
5:20 PM82 °FScattered clouds.15 mph40%29.98 "HgN/A
4:50 PM82 °FScattered clouds.13 mph40%29.98 "HgN/A
4:20 PM82 °FScattered clouds.9 mph40%29.98 "HgN/A
3:50 PM82 °FScattered clouds.10 mph37%29.98 "HgN/A
3:20 PM82 °FScattered clouds.12 mph37%30.01 "HgN/A
2:50 PM81 °FScattered clouds.10 mph42%30.01 "HgN/A
2:20 PM81 °FScattered clouds.7 mph42%30.01 "HgN/A
1:50 PM81 °FScattered clouds.8 mph39%30.01 "HgN/A
1:20 PM79 °FScattered clouds.12 mph45%30.04 "HgN/A
Weather by CustomWeather, © 2014

See weather overviewHow to use our weather pages